ATLAS 5 CENTAUR DEB, 43967

Orbit data source: Space-Track

ATLAS 5 CENTAUR DEB, 43967 is space debris in HEO originally from a launch on Wed, 17 Sep 2014 UTC launched from the Air Force Eastern Test Range (AFETR). Debris objects in space refer to the collection of defunct objects orbiting the Earth. Examples of debris include non-operational satellites, rocket bodies, and fragments generated from explosions, collisions, or faulty payload assembly.

Loading next visibility...
ATLAS 5 CENTAUR DEB details
Identifier
43967, 2014-055W
Orbit
HEO
Last TLE update1 day ago
Origin
Flag of USULA (US)
ManufacturerUnknown
MissionSpacecraft
Bus & MotorUnknown
MassUnknown
Launch date (UTC)
2014-09-17 (10 years ago)
Launch vehicleUnknown
Launch site
Air Force Eastern Test Range (AFETR)
Object type
Payload
Rocket body
Debris
Shape & HBRUnknown
Radar Cross SectionMedium (>0.1 m² and <1 m²)

Expand to show TLE details & history

TLE from 1 day ago
0 ATLAS 5 CENTAUR DEB
1 43967U 14055W   24336.29421288  .00000000  00000-0  00000-0 0  9998
2 43967  19.5190 192.0202 5157620  79.8854 332.2897  1.82852601 41708
Epoch: 2024-12-01T07:03Z
Definitive object data (Epoch: 2024-12-01T07:03:39.992Z)
Latitude-0.00007°
Longitude15.58018°
Altitude12,583.376 km
Speed5.285 km/s
True Right ascension12h 48m 31s
True Declination0° 00' 00"
Sunlit
Object was in daylight at TLE epoch
Visualization TLE readout
Latitude17.57685°
Longitude132.38268°
Altitude8,209.415 km
Speed6.368 km/s
Apparent Right ascension20h 33m 44s
Apparent Declination0° 58' 52"
Sunlit
Object is in daylight
Visualization observer readout
Local Sidereal Time08:28:03
Azimuth357.832° N
Elevation-49.082°
Doppler factor1
Orbital elements
Apogee altitude36,443.582 km
Perigee altitude7,302.047 km
Semi-major axis28,250.952 km
Eccentricity0.515762
Inclination19.519°
RAAN192.0202°
Arg. of periapsis79.8854°
True anomaly280.29113°
Mean anomaly332.2897°
Eccentric anomaly309.4813°
Mean motion0.45708 °/min
BSTARUnknown
Orbital period787.61 mins
Loading maneuver chart data...

ATLAS 5 CENTAUR DEB Visibility forecast

Observer location: undefined°, undefined

Span
Click to sort rows by Start time (UTC) header in descending order
Start Az.
Max El. time (UTC)
Max El. Az.
Max El.
End time (UTC)
End Az.
680 mins2024-12-02 23:21:26.987Z262.537° W2024-12-02 23:57:26.987Z192.475° SSW37.169°2024-12-03 10:41:26.987Z141.574° SSE
|